12-09-2022, 00:00:06,    179,    0.2,   13.0,   0.00,   0.00, 1010.9,   89.8, -999.0
12-09-2022, 00:00:16,    179,    0.0,   13.0,   0.00,   0.00, 1010.9,   89.5, -999.0
12-09-2022, 00:00:26,    174,    0.3,   13.0,   0.00,   0.00, 1011.0,   89.8, -999.0
12-09-2022, 00:00:36,    174,    0.7,   13.1,   0.00,   0.00, 1011.0,   89.9, -999.0
12-09-2022, 00:00:46,    175,    0.1,   13.0,   0.00,   0.00, 1010.9,   89.6, -999.0
12-09-2022, 00:00:56,    174,    0.0,   13.0,   0.00,   0.00, 1010.8,   89.5, -999.0
12-09-2022, 00:01:06,    174,    0.0,   13.0,   0.00,   0.00, 1010.9,   89.5, -999.0
12-09-2022, 00:01:16,    175,    0.0,   13.0,   0.00,   0.00, 1010.9,   89.4, -999.0
12-09-2022, 00:01:26,    174,    0.0,   13.0,   0.00,   0.00, 1010.9,   89.6, -999.0
12-09-2022, 00:01:36,    174,    0.0,   13.0,   0.00,   0.00, 1010.9,   89.7, -999.0
12-09-2022, 00:01:46,    174,    0.0,   12.9,   0.00,   0.00, 1010.9,   89.6, -999.0
12-09-2022, 00:01:56,    174,    0.0,   12.9,   0.00,   0.00, 1010.9,   89.6, -999.0
12-09-2022, 00:02:06,    174,    0.0,   13.0,   0.00,   0.00, 1010.9,   89.6, -999.0
12-09-2022, 00:02:16,    174,    0.0,   13.0,   0.00,   0.00, 1010.9,   89.6, -999.0
12-09-2022, 00:02:26,    174,    0.0,   13.0,   0.00,   0.00, 1010.9,   89.6, -999.0
12-09-2022, 00:02:36,    175,    0.7,   13.0,   0.00,   0.00, 1011.0,   90.0, -999.0
12-09-2022, 00:02:45,    174,    0.5,   13.0,   0.00,   0.00, 1011.0,   89.8, -999.0
12-09-2022, 00:02:56,    174,    0.0,   12.9,   0.00,   0.00, 1010.9,   89.5, -999.0
12-09-2022, 00:03:05,    174,    0.0,   12.9,   0.00,   0.00, 1010.9,   89.4, -999.0
12-09-2022, 00:03:15,    174,    0.0,   13.0,   0.00,   0.00, 1010.9,   89.4, -999.0
12-09-2022, 00:03:25,    174,    0.0,   13.0,   0.00,   0.00, 1010.9,   89.4, -999.0
12-09-2022, 00:03:35,    174,    0.1,   13.0,   0.00,   0.00, 1010.9,   89.5, -999.0
12-09-2022, 00:03:45,    174,    1.2,   13.0,   0.00,   0.00, 1011.0,   89.9, -999.0
12-09-2022, 00:03:55,    175,    0.3,   13.0,   0.00,   0.00, 1011.0,   89.9, -999.0
12-09-2022, 00:04:05,    174,    0.0,   13.0,   0.00,   0.00, 1010.9,   89.6, -999.0
12-09-2022, 00:04:15,    174,    0.0,   13.0,   0.00,   0.00, 1010.9,   89.6, -999.0
12-09-2022, 00:04:25,    174,    0.0,   13.0,   0.00,   0.00, 1010.9,   89.5, -999.0
12-09-2022, 00:04:35,    174,    0.0,   12.9,   0.00,   0.00, 1010.8,   89.5, -999.0
12-09-2022, 00:04:45,    174,    0.0,   12.9,   0.00,   0.00, 1010.9,   89.5, -999.0
12-09-2022, 00:04:55,    174,    0.0,   13.0,   0.00,   0.00, 1010.9,   89.4, -999.0
12-09-2022, 00:05:05,    174,    0.0,   12.9,   0.00,   0.00, 1010.9,   89.4, -999.0
12-09-2022, 00:05:15,    174,    0.0,   12.9,   0.00,   0.00, 1010.9,   89.4, -999.0
12-09-2022, 00:05:25,    174,    0.0,   12.9,   0.00,   0.00, 1010.9,   89.5, -999.0
12-09-2022, 00:05:35,    174,    0.0,   13.0,   0.00,   0.00, 1010.9,   89.4, -999.0
12-09-2022, 00:05:44,    174,    0.0,   12.9,   0.00,   0.00, 1010.9,   89.5, -999.0
12-09-2022, 00:05:55,    174,    0.0,   13.0,   0.00,   0.00, 1010.9,   89.3, -999.0
12-09-2022, 00:06:05,    173,    1.0,   12.9,   0.00,   0.00, 1011.0,   89.7, -999.0
12-09-2022, 00:06:14,    173,    0.4,   13.0,   0.00,   0.00, 1011.0,   89.7, -999.0
12-09-2022, 00:06:24,    173,    0.0,   12.9,   0.00,   0.00, 1010.9,   89.5, -999.0
12-09-2022, 00:06:35,    173,    0.0,   12.9,   0.00,   0.00, 1010.9,   89.5, -999.0
12-09-2022, 00:06:44,    173,    0.0,   12.9,   0.00,   0.00, 1010.9,   89.5, -999.0
12-09-2022, 00:06:54,    173,    0.0,   12.9,   0.00,   0.00, 1010.9,   89.6, -999.0
12-09-2022, 00:07:04,    173,    0.0,   12.9,   0.00,   0.00, 1010.9,   89.6, -999.0
12-09-2022, 00:07:14,    173,    0.0,   12.9,   0.00,   0.00, 1010.9,   89.8, -999.0
12-09-2022, 00:07:24,    173,    0.0,   12.9,   0.00,   0.00, 1010.9,   89.7, -999.0
12-09-2022, 00:07:34,    174,    0.0,   13.0,   0.00,   0.00, 1010.9,   89.8, -999.0
12-09-2022, 00:07:44,    173,    0.0,   12.9,   0.00,   0.00, 1010.9,   89.7, -999.0
12-09-2022, 00:07:54,    173,    0.0,   13.0,   0.00,   0.00, 1010.9,   89.8, -999.0
12-09-2022, 00:08:04,    173,    0.0,   13.0,   0.00,   0.00, 1010.9,   89.8, -999.0
12-09-2022, 00:08:14,    173,    0.0,   12.9,   0.00,   0.00, 1010.9,   89.8, -999.0
12-09-2022, 00:08:23,    173,    0.0,   12.9,   0.00,   0.00, 1010.9,   89.8, -999.0
12-09-2022, 00:08:34,    173,    0.0,   12.9,   0.00,   0.00, 1010.9,   89.8, -999.0
12-09-2022, 00:08:44,    173,    0.0,   12.9,   0.00,   0.00, 1010.9,   89.7, -999.0
12-09-2022, 00:08:53,    171,    0.0,   12.9,   0.00,   0.00, 1010.9,   89.7, -999.0
12-09-2022, 00:09:04,    173,    0.0,   12.9,   0.00,   0.00, 1010.9,   89.6, -999.0
12-09-2022, 00:09:14,    173,    0.0,   12.9,   0.00,   0.00, 1010.9,   89.6, -999.0
12-09-2022, 00:09:23,    173,    0.0,   12.9,   0.00,   0.00, 1011.0,   89.5, -999.0
12-09-2022, 00:09:33,    173,    0.0,   12.8,   0.00,   0.00, 1011.0,   89.5, -999.0
12-09-2022, 00:09:44,    173,    0.0,   12.9,   0.00,   0.00, 1011.0,   89.6, -999.0
12-09-2022, 00:09:53,    173,    0.0,   12.9,   0.00,   0.00, 1011.0,   89.7, -999.0
12-09-2022, 00:10:03,    174,    0.0,   12.9,   0.00,   0.00, 1010.9,   89.8, -999.0
12-09-2022, 00:10:13,    173,    0.0,   12.9,   0.00,   0.00, 1010.9,   89.9, -999.0
12-09-2022, 00:10:23,    173,    0.0,   12.9,   0.00,   0.00, 1011.0,   89.9, -999.0
12-09-2022, 00:10:33,    195,    0.0,   12.9,   0.00,   0.00, 1011.0,   89.8, -999.0
12-09-2022, 00:10:43,    195,    0.0,   12.9,   0.00,   0.00, 1011.0,   89.9, -999.0
12-09-2022, 00:10:53,    205,    0.0,   12.9,   0.00,   0.00, 1011.0,   89.9, -999.0
12-09-2022, 00:11:03,    205,    0.0,   12.9,   0.00,   0.00, 1010.9,   89.8, -999.0
12-09-2022, 00:11:13,    206,    0.0,   12.9,   0.00,   0.00, 1011.0,   89.8, -999.0
12-09-2022, 00:11:23,    206,    0.0,   12.9,   0.00,   0.00, 1011.0,   89.7, -999.0
12-09-2022, 00:11:32,    205,    0.0,   12.9,   0.00,   0.00, 1011.0,   89.8, -999.0
12-09-2022, 00:11:43,    206,    0.0,   12.9,   0.00,   0.00, 1011.0,   89.9, -999.0
12-09-2022, 00:11:53,    205,    0.0,   12.9,   0.00,   0.00, 1011.0,   90.0, -999.0
12-09-2022, 00:12:02,    205,    0.0,   12.8,   0.00,   0.00, 1011.0,   90.0, -999.0
12-09-2022, 00:12:13,    206,    0.0,   12.9,   0.00,   0.00, 1010.9,   90.2, -999.0
12-09-2022, 00:12:23,    192,    0.0,   13.0,   0.00,   0.00, 1011.0,   90.4, -999.0
12-09-2022, 00:12:32,    193,    0.0,   12.9,   0.00,   0.00, 1011.0,   90.2, -999.0
12-09-2022, 00:12:42,    193,    0.0,   12.9,   0.00,   0.00, 1011.0,   90.1, -999.0
12-09-2022, 00:12:52,    192,    0.0,   12.8,   0.00,   0.00, 1011.0,   90.0, -999.0
12-09-2022, 00:13:02,    193,    0.0,   12.9,   0.00,   0.00, 1011.0,   90.0, -999.0
12-09-2022, 00:13:12,    193,    0.0,   12.9,   0.00,   0.00, 1011.0,   90.1, -999.0
12-09-2022, 00:13:22,    193,    0.0,   12.9,   0.00,   0.00, 1010.9,   90.2, -999.0
12-09-2022, 00:13:32,    193,    0.0,   12.9,   0.00,   0.00, 1010.9,   90.1, -999.0
12-09-2022, 00:13:42,    193,    0.0,   12.9,   0.00,   0.00, 1011.0,   90.1, -999.0
12-09-2022, 00:13:52,    193,    0.0,   12.9,   0.00,   0.00, 1011.0,   90.1, -999.0
12-09-2022, 00:14:02,    193,    0.0,   12.8,   0.00,   0.00, 1011.0,   90.3, -999.0
12-09-2022, 00:14:12,    193,    0.0,   12.8,   0.00,   0.00, 1011.0,   90.2, -999.0
12-09-2022, 00:14:22,    193,    0.0,   12.9,   0.00,   0.00, 1011.0,   90.2, -999.0
12-09-2022, 00:14:32,    193,    0.0,   12.8,   0.00,   0.00, 1011.0,   90.2, -999.0
12-09-2022, 00:14:42,    193,    0.0,   12.7,   0.00,   0.00, 1011.0,   90.1, -999.0
12-09-2022, 00:14:52,    192,    0.0,   12.7,   0.00,   0.00, 1010.9,   90.2, -999.0
12-09-2022, 00:15:02,    192,    0.0,   12.8,   0.00,   0.00, 1011.0,   90.3, -999.0
12-09-2022, 00:15:11,    192,    0.0,   12.9,   0.00,   0.00, 1011.0,   90.3, -999.0
12-09-2022, 00:15:22,    192,    0.0,   12.8,   0.00,   0.00, 1011.0,   90.4, -999.0
12-09-2022, 00:15:31,    192,    0.0,   12.8,   0.00,   0.00, 1011.0,   90.4, -999.0
12-09-2022, 00:15:41,    192,    0.0,   12.8,   0.00,   0.00, 1010.9,   90.6, -999.0
12-09-2022, 00:15:51,    188,    0.0,   12.8,   0.00,   0.00, 1010.9,   90.5, -999.0
12-09-2022, 00:16:01,    184,    0.0,   12.8,   0.00,   0.00, 1011.0,   90.7, -999.0
12-09-2022, 00:16:11,    184,    0.0,   12.8,   0.00,   0.00, 1010.9,   90.5, -999.0
12-09-2022, 00:16:21,    184,    0.0,   12.8,   0.00,   0.00, 1011.0,   90.6, -999.0
12-09-2022, 00:16:31,    184,    0.0,   12.9,   0.00,   0.00, 1010.9,   90.7, -999.0
12-09-2022, 00:16:41,    161,    0.5,   12.9,   0.00,   0.00, 1011.0,   90.8, -999.0
12-09-2022, 00:16:51,    198,    1.0,   13.0,   0.00,   0.00, 1011.1,   91.1, -999.0
12-09-2022, 00:17:01,    198,    0.0,   12.9,   0.00,   0.00, 1011.0,   90.7, -999.0
12-09-2022, 00:17:11,    198,    0.0,   12.9,   0.00,   0.00, 1011.0,   90.7, -999.0
12-09-2022, 00:17:21,    198,    0.0,   12.9,   0.00,   0.00, 1011.0,   90.6, -999.0
12-09-2022, 00:17:31,    198,    0.0,   12.8,   0.00,   0.00, 1011.0,   90.7, -999.0
12-09-2022, 00:17:41,    198,    0.0,   12.8,   0.00,   0.00, 1011.0,   90.6, -999.0
12-09-2022, 00:17:51,    198,    0.0,   12.9,   0.00,   0.00, 1011.0,   90.6, -999.0
12-09-2022, 00:18:01,    198,    0.0,   12.8,   0.00,   0.00, 1011.0,   90.7, -999.0
12-09-2022, 00:18:11,    198,    0.0,   12.8,   0.00,   0.00, 1011.0,   90.7, -999.0
12-09-2022, 00:18:20,    198,    0.0,   12.8,   0.00,   0.00, 1011.0,   90.6, -999.0
12-09-2022, 00:18:31,    198,    0.0,   12.9,   0.00,   0.00, 1010.9,   90.7, -999.0
12-09-2022, 00:18:40,    198,    0.0,   12.8,   0.00,   0.00, 1011.0,   90.7, -999.0
12-09-2022, 00:18:50,    198,    0.0,   12.8,   0.00,   0.00, 1011.0,   90.7, -999.0
12-09-2022, 00:19:00,    190,    0.7,   12.9,   0.00,   0.00, 1011.1,   91.1, -999.0
12-09-2022, 00:19:10,    190,    0.3,   12.9,   0.00,   0.00, 1011.1,   91.2, -999.0
12-09-2022, 00:19:20,    169,    1.1,   12.9,   0.00,   0.00, 1011.0,   91.4, -999.0
12-09-2022, 00:19:30,    205,    1.3,   12.9,   0.00,   0.00, 1011.0,   91.5, -999.0
12-09-2022, 00:19:40,    205,    0.1,   12.9,   0.00,   0.00, 1011.0,   91.2, -999.0
12-09-2022, 00:19:50,    204,    0.0,   12.9,   0.00,   0.00, 1010.9,   91.2, -999.0
12-09-2022, 00:20:00,    204,    0.0,   13.0,   0.00,   0.00, 1011.0,   91.3, -999.0
12-09-2022, 00:20:10,    205,    0.0,   12.9,   0.00,   0.00, 1011.0,   91.2, -999.0
12-09-2022, 00:20:20,    204,    0.0,   12.8,   0.00,   0.00, 1011.0,   91.2, -999.0
12-09-2022, 00:20:30,    205,    0.0,   12.9,   0.00,   0.00, 1011.0,   91.1, -999.0
12-09-2022, 00:20:40,    204,    0.0,   12.9,   0.00,   0.00, 1010.9,   91.2, -999.0
12-09-2022, 00:20:50,    204,    0.0,   12.9,   0.00,   0.00, 1011.0,   91.1, -999.0
12-09-2022, 00:21:00,    205,    0.0,   12.9,   0.00,   0.00, 1011.0,   91.2, -999.0
12-09-2022, 00:21:10,    204,    0.0,   12.9,   0.00,   0.00, 1010.9,   91.2, -999.0
12-09-2022, 00:21:19,    204,    0.0,   12.9,   0.00,   0.00, 1010.9,   91.1, -999.0
12-09-2022, 00:21:29,    204,    0.0,   12.8,   0.00,   0.00, 1010.9,   91.2, -999.0
12-09-2022, 00:21:40,    204,    0.0,   12.9,   0.00,   0.00, 1011.0,   91.1, -999.0
12-09-2022, 00:21:49,    203,    0.0,   12.9,   0.00,   0.00, 1010.9,   91.2, -999.0
12-09-2022, 00:21:59,    204,    0.0,   12.9,   0.00,   0.00, 1010.9,   91.2, -999.0
12-09-2022, 00:22:10,    201,    0.0,   12.9,   0.00,   0.00, 1010.9,   91.2, -999.0
12-09-2022, 00:22:19,    202,    0.0,   12.9,   0.00,   0.00, 1010.9,   91.1, -999.0
12-09-2022, 00:22:29,    202,    0.0,   13.0,   0.00,   0.00, 1010.9,   91.1, -999.0
12-09-2022, 00:22:39,    201,    0.0,   13.0,   0.00,   0.00, 1011.0,   91.1, -999.0
12-09-2022, 00:22:49,    201,    0.0,   13.0,   0.00,   0.00, 1011.0,   91.2, -999.0
12-09-2022, 00:22:59,    201,    0.0,   13.0,   0.00,   0.00, 1010.9,   91.2, -999.0
12-09-2022, 00:23:09,    201,    0.0,   13.0,   0.00,   0.00, 1010.9,   91.2, -999.0
12-09-2022, 00:23:19,    201,    0.0,   12.9,   0.00,   0.00, 1010.9,   91.2, -999.0
12-09-2022, 00:23:29,    198,    0.0,   12.9,   0.00,   0.00, 1011.0,   91.1, -999.0
12-09-2022, 00:23:39,    172,    0.0,   13.0,   0.00,   0.00, 1010.9,   91.0, -999.0
12-09-2022, 00:23:49,    172,    0.0,   13.0,   0.00,   0.00, 1011.0,   91.2, -999.0
12-09-2022, 00:23:58,    173,    0.0,   12.9,   0.00,   0.00, 1010.9,   91.1, -999.0
12-09-2022, 00:24:09,    172,    0.0,   12.9,   0.00,   0.00, 1010.9,   90.9, -999.0
12-09-2022, 00:24:19,    172,    0.0,   12.9,   0.00,   0.00, 1010.9,   91.0, -999.0
12-09-2022, 00:24:28,    172,    0.0,   12.9,   0.00,   0.00, 1010.9,   90.9, -999.0
12-09-2022, 00:24:38,    172,    0.0,   12.9,   0.00,   0.00, 1011.0,   91.1, -999.0
12-09-2022, 00:24:49,    172,    0.0,   12.9,   0.00,   0.00, 1010.9,   91.1, -999.0
12-09-2022, 00:24:58,    172,    0.1,   12.9,   0.00,   0.00, 1010.9,   91.2, -999.0
12-09-2022, 00:25:08,    172,    0.7,   13.0,   0.00,   0.00, 1011.0,   91.6, -999.0
12-09-2022, 00:25:19,    172,    0.2,   13.0,   0.00,   0.00, 1011.0,   91.4, -999.0
12-09-2022, 00:25:28,    173,    0.3,   12.9,   0.00,   0.00, 1011.0,   91.3, -999.0
12-09-2022, 00:25:38,    173,    0.1,   13.0,   0.00,   0.00, 1011.0,   91.4, -999.0
12-09-2022, 00:25:48,    172,    0.0,   12.9,   0.00,   0.00, 1011.0,   91.4, -999.0
12-09-2022, 00:25:58,    172,    0.2,   12.9,   0.00,   0.00, 1011.0,   91.4, -999.0
12-09-2022, 00:26:08,    172,    0.2,   13.0,   0.00,   0.00, 1011.0,   91.4, -999.0
12-09-2022, 00:26:18,    182,    0.0,   12.9,   0.00,   0.00, 1010.9,   91.3, -999.0
12-09-2022, 00:26:28,    182,    0.0,   12.8,   0.00,   0.00, 1010.9,   91.2, -999.0
12-09-2022, 00:26:38,    182,    0.0,   12.8,   0.00,   0.00, 1010.9,   91.1, -999.0
12-09-2022, 00:26:48,    181,    0.0,   12.9,   0.00,   0.00, 1010.9,   91.0, -999.0
12-09-2022, 00:26:58,    182,    0.0,   12.9,   0.00,   0.00, 1010.9,   91.1, -999.0
12-09-2022, 00:27:08,    192,    0.0,   12.9,   0.00,   0.00, 1010.9,   91.2, -999.0
12-09-2022, 00:27:18,    193,    0.0,   12.8,   0.00,   0.00, 1010.9,   91.2, -999.0
12-09-2022, 00:27:28,    193,    0.0,   12.9,   0.00,   0.00, 1010.9,   91.2, -999.0
12-09-2022, 00:27:37,    193,    0.0,   12.8,   0.00,   0.00, 1010.9,   91.2, -999.0
12-09-2022, 00:27:48,    193,    0.0,   12.9,   0.00,   0.00, 1010.9,   91.3, -999.0
12-09-2022, 00:27:58,    193,    0.0,   12.9,   0.00,   0.00, 1010.9,   91.2, -999.0
12-09-2022, 00:28:07,    167,    0.5,   12.9,   0.00,   0.00, 1011.0,   91.6, -999.0
12-09-2022, 00:28:17,    167,    0.5,   13.0,   0.00,   0.00, 1011.0,   91.7, -999.0
12-09-2022, 00:28:27,    167,    0.8,   12.9,   0.00,   0.00, 1011.0,   91.8, -999.0
12-09-2022, 00:28:37,    167,    0.5,   12.9,   0.00,   0.00, 1010.9,   91.9, -999.0
12-09-2022, 00:28:47,    167,    0.0,   12.9,   0.00,   0.00, 1010.9,   91.5, -999.0
12-09-2022, 00:28:57,    167,    0.9,   12.9,   0.00,   0.00, 1011.0,   91.8, -999.0
12-09-2022, 00:29:07,    167,    0.0,   12.8,   0.00,   0.00, 1010.9,   91.5, -999.0
12-09-2022, 00:29:17,    165,    0.0,   12.8,   0.00,   0.00, 1010.9,   91.5, -999.0
12-09-2022, 00:29:27,    167,    0.0,   12.8,   0.00,   0.00, 1010.8,   91.5, -999.0
12-09-2022, 00:29:37,    167,    0.3,   12.9,   0.00,   0.00, 1010.9,   91.8, -999.0
12-09-2022, 00:29:47,    167,    1.2,   12.9,   0.00,   0.00, 1011.0,   92.0, -999.0
12-09-2022, 00:29:57,    166,    0.3,   12.9,   0.00,   0.00, 1010.9,   91.9, -999.0
12-09-2022, 00:30:07,    167,    0.0,   12.8,   0.00,   0.00, 1010.8,   91.7, -999.0
12-09-2022, 00:30:17,    166,    0.0,   12.9,   0.00,   0.00, 1010.8,   91.7, -999.0
12-09-2022, 00:30:27,    167,    0.0,   12.9,   0.00,   0.00, 1010.9,   91.9, -999.0
12-09-2022, 00:30:37,    167,    0.0,   12.8,   0.00,   0.00, 1010.8,   91.8, -999.0
12-09-2022, 00:30:46,    166,    0.0,   12.8,   0.00,   0.00, 1010.8,   91.8, -999.0
12-09-2022, 00:30:57,    166,    0.0,   12.8,   0.00,   0.00, 1010.8,   91.8, -999.0
12-09-2022, 00:31:06,    166,    0.0,   12.8,   0.00,   0.00, 1010.8,   91.8, -999.0
12-09-2022, 00:31:16,    167,    0.0,   12.9,   0.00,   0.00, 1010.8,   91.9, -999.0
12-09-2022, 00:31:26,    167,    0.0,   12.9,   0.00,   0.00, 1010.8,   91.9, -999.0
12-09-2022, 00:31:36,    166,    0.0,   12.8,   0.00,   0.00, 1010.8,   91.8, -999.0
12-09-2022, 00:31:46,    166,    0.0,   12.9,   0.00,   0.00, 1010.8,   91.8, -999.0
12-09-2022, 00:31:56,    166,    0.0,   12.9,   0.00,   0.00, 1010.8,   91.9, -999.0
12-09-2022, 00:32:06,    166,    0.0,   12.9,   0.00,   0.00, 1010.8,   92.1, -999.0
12-09-2022, 00:32:16,    166,    0.0,   12.9,   0.00,   0.00, 1010.8,   92.1, -999.0
12-09-2022, 00:32:26,    166,    0.0,   12.9,   0.00,   0.00, 1010.8,   92.1, -999.0
12-09-2022, 00:32:36,    166,    0.0,   12.9,   0.00,   0.00, 1010.8,   92.1, -999.0
12-09-2022, 00:32:46,    166,    0.0,   12.9,   0.00,   0.00, 1010.8,   92.0, -999.0
12-09-2022, 00:32:56,    166,    0.0,   12.9,   0.00,   0.00, 1010.8,   92.0, -999.0
12-09-2022, 00:33:06,    167,    0.0,   12.9,   0.00,   0.00, 1010.8,   92.1, -999.0
12-09-2022, 00:33:16,    172,    0.4,   12.9,   0.00,   0.00, 1010.8,   92.3, -999.0
12-09-2022, 00:33:26,    172,    0.0,   12.9,   0.00,   0.00, 1010.8,   92.0, -999.0
12-09-2022, 00:33:36,    172,    0.0,   12.9,   0.00,   0.00, 1010.8,   92.0, -999.0
12-09-2022, 00:33:46,    172,    0.0,   12.9,   0.00,   0.00, 1010.8,   92.0, -999.0
12-09-2022, 00:33:55,    172,    0.0,   12.8,   0.00,   0.00, 1010.8,   91.9, -999.0
12-09-2022, 00:34:06,    172,    0.0,   12.9,   0.00,   0.00, 1010.8,   91.8, -999.0
12-09-2022, 00:34:15,    172,    0.0,   12.8,   0.00,   0.00, 1010.8,   91.9, -999.0
12-09-2022, 00:34:25,    172,    0.0,   12.9,   0.00,   0.00, 1010.8,   91.8, -999.0
12-09-2022, 00:34:35,    172,    0.0,   12.9,   0.00,   0.00, 1010.8,   91.8, -999.0
12-09-2022, 00:34:45,    172,    0.1,   12.9,   0.00,   0.00, 1010.8,   91.9, -999.0
12-09-2022, 00:34:55,    172,    0.0,   12.9,   0.00,   0.00, 1010.8,   91.7, -999.0
12-09-2022, 00:35:05,    178,    0.3,   12.9,   0.00,   0.00, 1010.9,   92.0, -999.0
12-09-2022, 00:35:15,    178,    0.0,   12.9,   0.00,   0.00, 1010.8,   91.8, -999.0
12-09-2022, 00:35:25,    178,    0.0,   12.9,   0.00,   0.00, 1010.7,   91.7, -999.0
12-09-2022, 00:35:35,    178,    0.0,   12.8,   0.00,   0.00, 1010.7,   91.9, -999.0
12-09-2022, 00:35:45,    177,    0.0,   12.8,   0.00,   0.00, 1010.7,   91.9, -999.0
12-09-2022, 00:35:55,    178,    0.0,   12.9,   0.00,   0.00, 1010.8,   91.8, -999.0
12-09-2022, 00:36:05,    177,    0.0,   12.7,   0.00,   0.00, 1010.7,   91.8, -999.0
12-09-2022, 00:36:15,    178,    0.1,   12.8,   0.00,   0.00, 1010.8,   91.9, -999.0
12-09-2022, 00:36:25,    178,    0.0,   12.8,   0.00,   0.00, 1010.7,   91.7, -999.0
12-09-2022, 00:36:35,    178,    0.0,   12.8,   0.00,   0.00, 1010.7,   91.8, -999.0
12-09-2022, 00:36:45,    178,    0.0,   12.8,   0.00,   0.00, 1010.7,   91.8, -999.0
12-09-2022, 00:36:54,    178,    0.0,   12.8,   0.00,   0.00, 1010.7,   91.9, -999.0
12-09-2022, 00:37:04,    178,    0.0,   12.9,   0.00,   0.00, 1010.7,   92.3, -999.0
12-09-2022, 00:37:15,    179,    0.0,   12.9,   0.00,   0.00, 1010.7,   92.7, -999.0
12-09-2022, 00:37:24,    178,    0.0,   12.9,   0.00,   0.00, 1010.8,   92.6, -999.0
12-09-2022, 00:37:34,    178,    0.0,   12.9,   0.00,   0.00, 1010.8,   92.4, -999.0
12-09-2022, 00:37:44,    178,    0.0,   12.9,   0.00,   0.00, 1010.7,   92.1, -999.0
12-09-2022, 00:37:54,    178,    0.0,   12.8,   0.00,   0.00, 1010.7,   92.0, -999.0
12-09-2022, 00:38:04,    177,    0.0,   12.8,   0.00,   0.00, 1010.7,   91.9, -999.0
12-09-2022, 00:38:14,    178,    0.0,   12.8,   0.00,   0.00, 1010.7,   91.9, -999.0
12-09-2022, 00:38:24,    177,    0.0,   12.8,   0.00,   0.00, 1010.7,   91.8, -999.0
12-09-2022, 00:38:34,    178,    0.0,   12.8,   0.00,   0.00, 1010.7,   92.1, -999.0
12-09-2022, 00:38:44,    178,    0.0,   12.9,   0.00,   0.00, 1010.7,   92.2, -999.0
12-09-2022, 00:38:54,    177,    0.0,   12.8,   0.00,   0.00, 1010.7,   92.2, -999.0
12-09-2022, 00:39:04,    178,    0.0,   12.8,   0.00,   0.00, 1010.7,   92.1, -999.0
12-09-2022, 00:39:14,    178,    0.0,   12.8,   0.00,   0.00, 1010.7,   92.0, -999.0
12-09-2022, 00:39:24,    178,    0.0,   12.7,   0.00,   0.00, 1010.7,   91.9, -999.0
12-09-2022, 00:39:33,    178,    0.0,   12.8,   0.00,   0.00, 1010.7,   91.9, -999.0
12-09-2022, 00:39:44,    178,    0.0,   12.8,   0.00,   0.00, 1010.7,   92.0, -999.0
12-09-2022, 00:39:54,    178,    0.0,   12.8,   0.00,   0.00, 1010.8,   91.9, -999.0
12-09-2022, 00:40:13,    178,    0.3,   12.8,   0.00,   0.00, 1010.8,   92.3, -999.0
12-09-2022, 00:40:24,    177,    0.1,   12.8,   0.00,   0.00, 1010.8,   92.2, -999.0
12-09-2022, 00:40:33,    177,    0.7,   12.8,   0.00,   0.00, 1010.8,   92.4, -999.0
12-09-2022, 00:40:43,    176,    0.0,   12.8,   0.00,   0.00, 1010.7,   92.2, -999.0
12-09-2022, 00:40:54,    176,    0.0,   12.7,   0.00,   0.00, 1010.7,   92.1, -999.0
12-09-2022, 00:41:03,    176,    0.0,   12.7,   0.00,   0.00, 1010.7,   92.2, -999.0
12-09-2022, 00:41:13,    177,    0.0,   12.7,   0.00,   0.00, 1010.7,   92.1, -999.0
12-09-2022, 00:41:23,    177,    0.2,   12.8,   0.00,   0.00, 1010.8,   92.7, -999.0
12-09-2022, 00:41:33,    176,    0.4,   12.8,   0.00,   0.00, 1010.8,   92.8, -999.0
12-09-2022, 00:41:43,    176,    0.0,   12.7,   0.00,   0.00, 1010.7,   92.5, -999.0
12-09-2022, 00:41:53,    177,    0.0,   12.7,   0.00,   0.00, 1010.7,   92.5, -999.0
12-09-2022, 00:42:03,    177,    0.0,   12.7,   0.00,   0.00, 1010.7,   92.5, -999.0
12-09-2022, 00:42:13,    176,    0.0,   12.7,   0.00,   0.00, 1010.7,   92.4, -999.0
12-09-2022, 00:42:23,    177,    0.1,   12.7,   0.00,   0.00, 1010.7,   92.7, -999.0
12-09-2022, 00:42:33,    177,    0.1,   12.7,   0.00,   0.00, 1010.7,   92.7, -999.0
12-09-2022, 00:42:43,    176,    0.0,   12.7,   0.00,   0.00, 1010.7,   92.7, -999.0
12-09-2022, 00:42:52,    177,    0.0,   12.8,   0.00,   0.00, 1010.7,   93.0, -999.0
12-09-2022, 00:43:03,    176,    0.0,   12.8,   0.00,   0.00, 1010.7,   93.3, -999.0
12-09-2022, 00:43:13,    177,    0.0,   12.8,   0.00,   0.00, 1010.7,   93.4, -999.0
12-09-2022, 00:43:22,    176,    0.0,   12.7,   0.00,   0.00, 1010.7,   93.3, -999.0
12-09-2022, 00:43:32,    177,    0.0,   12.8,   0.00,   0.00, 1010.7,   93.2, -999.0
12-09-2022, 00:43:43,    176,    0.0,   12.7,   0.00,   0.00, 1010.7,   93.2, -999.0
12-09-2022, 00:43:52,    176,    0.0,   12.7,   0.00,   0.00, 1010.6,   93.3, -999.0
12-09-2022, 00:44:02,    176,    0.0,   12.7,   0.00,   0.00, 1010.7,   93.6, -999.0
12-09-2022, 00:44:12,    177,    0.0,   12.8,   0.00,   0.00, 1010.7,   93.7, -999.0
12-09-2022, 00:44:22,    176,    0.0,   12.8,   0.00,   0.00, 1010.7,   93.7, -999.0
12-09-2022, 00:44:32,    176,    0.0,   12.8,   0.00,   0.00, 1010.7,   93.8, -999.0
12-09-2022, 00:44:42,    176,    0.0,   12.8,   0.00,   0.00, 1010.6,   93.7, -999.0
12-09-2022, 00:44:52,    176,    0.0,   12.8,   0.00,   0.00, 1010.6,   93.6, -999.0
12-09-2022, 00:45:02,    176,    0.0,   12.8,   0.00,   0.00, 1010.6,   93.5, -999.0
12-09-2022, 00:45:12,    176,    0.0,   12.8,   0.00,   0.00, 1010.7,   93.4, -999.0
12-09-2022, 00:45:22,    177,    0.0,   12.8,   0.00,   0.00, 1010.7,   93.2, -999.0
12-09-2022, 00:45:32,    176,    0.0,   12.6,   0.00,   0.00, 1010.7,   93.2, -999.0
12-09-2022, 00:45:42,    177,    0.4,   12.9,   0.00,   0.00, 1010.7,   94.0, -999.0
12-09-2022, 00:45:52,    176,    0.1,   12.8,   0.00,   0.00, 1010.7,   93.9, -999.0
12-09-2022, 00:46:01,    177,    0.0,   12.8,   0.00,   0.00, 1010.6,   93.7, -999.0
12-09-2022, 00:46:12,    176,    0.0,   12.8,   0.00,   0.00, 1010.7,   93.5, -999.0
12-09-2022, 00:46:22,    176,    0.0,   12.8,   0.00,   0.00, 1010.6,   93.2, -999.0
12-09-2022, 00:46:31,    177,    0.0,   12.7,   0.00,   0.00, 1010.7,   93.1, -999.0
12-09-2022, 00:46:41,    176,    0.0,   12.8,   0.00,   0.00, 1010.6,   93.8, -999.0
12-09-2022, 00:46:51,    176,    0.0,   12.8,   0.00,   0.00, 1010.7,   93.8, -999.0